SCP
0 0 0 0 0 0 0 0 0 0 0 0 0 0 0 0 0 0 0 0 0 0 0 0 0 0 0 0 0 0 0 0 0 0 0 0 0 0 0 0 0 0 0
0 0 0 0 0 0 0 0 0 0 0 0 0 0 0 0 0 0 0 0 0 0 0 0 0 0 0 0 0 0 0 0 0 0 0 0 0 0 0 0 0 0 0
0 0 0 0 0 0 0 0 0 0 0 0 0 0 0 0 0 0 0 0 0 0 0 0 0 0 0 0 0 0 0 0 0 0 0 0 0 0 0 0 0 0 0
0 0 0 0 0 0 0 0 0 0 0 0 0 0 0 0 0 0 0 0 0 0 0 0 0 0 0 0 0 0 0 0 0 0 0 0 0 0 0 0 0 0 0
0 0 0 0 0 0 0 0 0 0 0 0 0 0 0 0 0 0 0 0 0 0 0 0 0 0 0 0 0 0 0 0 0 0 0 0 0 0 0 0 0 0 0
0 0 0 0 0 0 0 0 0 0 0 0 0 0 0 0 0 0 0 0 0 0 0 0 0 0 0 0 0 0 0 0 0 0 0 0 0 0 0 0 0 0 0
0 0 0 0 0 0 0 0 0 0 0 0 0 0 0 0 0 0 0 0 0 0 0 0 0 0 0 0 0 0 0 0 0 0 0 0 0 0 0 0 0 0 0
0 0 0 0 0 0 0 0 0 0 0 0 0 0 0 0 0 0 0 0 0 0 0 0 0 0 0 0 0 0 0 0 0 0 0 0 0 0 0 0 0 0 0
0 0 0 0 0 0 0 0 0 0 0 0 0 0 0 0 0 0 0 0 0 0 0 0 0 0 0 0 0 0 0 0 0 0 0 0 0 0 0 0 0 0 0
0 0 0 0 0 0 0 0 0 0 0 0 0 0 0 0 0 0 0 0 0 0 0 0 0 0 0 0 0 0 0 0 0 0 0 0 0 0 0 0 0 0 0
0 0 0 0 0 0 0 0 0 0 0 0 0 0 0 0 0 0 0 0 0 0 0 0 0 0 0 0 0 0 0 0 0 0 0 0 0 0 0 0 0 0 0
0 0 0 0 0 0 0 0 0 0 0 0 0 0 0 0 0 0 0 0 0 0 0 0 0 0 0 0 0 0 0 0 0 0 0 0 0 0 0 0 0 0 0
0 0 0 0 0 0 0 0 0 0 0 0 0 0 0 0 0 0 0 0 0 0 0 0 0 0 0 0 0 0 0 0 0 0 0 0 0 0 0 0 0 0 0
0 0 0 0 0 0 0 0 0 0 0 0 0 0 0 0 0 0 0 0 0 0 0 0 0 0 0 0 0 0 0 0 0 0 0 0 0 0 0 0 0 0 0
0 0 0 0 0 0 0 0 0 0 0 0 0 0 0 0 0 0 0 0 0 0 0 0 0 0 0 0 0 0 0 0 0 0 0 0 0 0 0 0 0 0 0
0 0 0 0 0 0 0 0 0 0 0 0 0 0 0 0 0 0 0 0 0 0 0 0 0 0 0 0 0 0 0 0 0 0 0 0 0 0 0 0 0 0 0
0 0 0 0 0 0 0 0 0 0 0 0 0 0 0 0 0 0 0 0 0 0 0 0 0 0 0 0 0 0 0 0 0 0 0 0 0 0 0 0 0 0 0
0 0 0 0 0 0 0 0 0 0 0 0 0 0 0 0 0 0 0 0 0 0 0 0 0 0 0 0 0 0 0 0 0 0 0 0 0 0 0 0 0 0 0
0 0 0 0 0 0 0 0 0 0 0 0 0 0 0 0 0 0 0 0 0 0 0 0 0 0 0 0 0 0 0 0 0 0 0 0 0 0 0 0 0 0 0
0 0 0 0 0 0 0 0 0 0 0 0 0 0 0 0 0 0 0 0 0 0 0 0 0 0 0 0 0 0 0 0 0 0 0 0 0 0 0 0 0 0 0
0 0 0 0 0 0 0 0 0 0 0 0 0 0 0 0 0 0 0 0 0 0 0 0 0 0 0 0 0 0 0 0 0 0 0 0 0 0 0 0 0 0 -0
0 0 0 0 0 0 0 0 0 0 0 0 0 0 0 0 0 0 0 0 0 0 0 0 0 0 0 0 0 0 0 0 0 0 0 0 0 0 0 0 0 -0 -0
0 0 0 0 0 0 0 0 0 0 0 0 0 0 0 0 0 0 0 0 0 0 0 0 0 0 0 0 0 0 0 0 0 0 0 0 0 0 0 0 -0 -0 0
0 0 0 0 0 0 0 0 0 0 0 0 0 0 0 0 0 0 0 0 0 0 0 0 0 0 0 0 0 0 0 0 0 0 0 0 0 0 -0 -0 0 0 0
0 0 0 0 0 0 0 0 0 0 0 0 0 0 0 0 0 0 0 0 0 0 0 0 0 0 0 0 0 0 0 0 0 0 0 0 0 0 -0 0 0 0 0
0 0 0 0 0 0 0 0 0 0 0 0 0 0 0 0 0 0 0 0 0 0 0 0 0 0 0 0 0 0 0 0 0 0 0 -0 -0 0 0 0 0 0 0
Wind_Speed_500mb
13 11 11 14 16 18 20 20 21 23 23 24 26 24 22 18 16 16 15 14 14 14 15 18 21 25 26 29 33 36 42 43 38 48 50 52 24 35 41 42 42 51 58
20 19 21 23 24 26 29 31 31 30 28 30 31 30 27 26 24 21 19 17 17 19 22 25 28 33 34 36 40 41 43 39 38 41 53 29 48 25 43 60 53 54 52
27 26 29 30 30 31 32 34 35 35 34 33 33 33 31 28 23 19 19 19 19 22 27 31 34 36 37 37 41 39 39 38 42 31 28 30 27 69 50 53 38 43 58
32 32 34 34 34 35 36 36 36 36 34 30 29 27 26 25 21 18 16 16 21 28 35 38 39 40 40 38 38 35 36 32 36 42 34 38 47 56 58 36 62 46 49
39 37 34 35 36 37 37 36 35 35 34 31 28 26 25 22 18 14 16 23 31 39 42 43 43 42 41 39 41 40 39 38 41 44 44 44 46 51 59 73 55 65 59
41 37 33 35 37 37 36 35 33 34 31 28 25 23 21 18 14 16 21 27 32 39 45 45 42 40 41 43 43 45 46 48 51 51 50 39 46 54 56 69 77 75 69
43 39 37 34 33 33 33 31 29 30 27 24 22 18 15 13 12 16 22 28 32 39 44 45 42 41 43 45 47 50 51 52 54 57 50 49 52 52 56 64 77 75 78
43 39 36 34 32 31 28 28 26 25 22 19 16 13 10 9 12 17 22 27 31 37 42 42 41 41 44 46 47 51 51 45 52 49 49 51 53 54 56 62 65 85 83
45 43 37 33 31 29 27 27 24 21 17 14 10 8 9 13 19 25 31 33 35 34 37 38 39 41 44 45 48 51 50 49 51 51 53 52 58 57 59 58 61 62 82
46 43 37 33 30 28 27 25 20 18 14 9 5 6 13 19 24 29 34 36 34 34 35 36 39 42 46 49 51 55 54 50 49 53 56 57 59 62 62 64 62 63 69
48 44 39 34 31 28 27 24 19 16 11 6 2 9 15 21 28 33 36 35 32 31 34 38 43 47 51 53 52 53 50 46 54 55 58 61 63 64 64 65 67 68 64
48 44 40 36 32 29 26 22 19 15 11 4 4 11 18 24 30 35 34 31 30 33 38 43 47 50 52 52 50 51 45 53 57 59 61 63 64 65 64 65 65 67 70
46 44 40 36 32 29 26 22 19 15 11 4 6 13 20 27 31 33 30 30 34 38 42 46 49 52 52 51 48 46 51 56 57 59 60 64 63 65 65 64 67 73 73
46 44 40 36 33 29 26 23 20 17 11 6 10 16 24 30 31 30 29 34 39 43 47 50 52 51 48 48 46 50 61 60 58 59 59 61 62 63 66 73 70 68 76
45 44 40 37 34 30 27 24 21 17 11 9 14 21 28 30 29 28 32 38 42 47 50 53 50 49 48 45 52 61 62 61 63 59 59 60 61 62 62 64 69 79 82
41 39 37 36 34 31 28 26 22 16 9 10 17 25 28 27 28 32 37 43 48 50 50 50 48 50 51 50 53 55 61 60 59 62 65 63 63 63 64 67 73 72 80
38 38 36 34 32 30 28 24 20 12 8 12 19 24 26 27 32 38 43 46 48 52 51 48 49 54 57 51 54 54 57 56 59 63 66 69 67 66 80 76 76 78 81
32 33 33 33 30 30 26 24 18 10 9 15 19 23 27 31 36 41 43 47 49 48 50 52 54 56 56 53 54 53 57 59 60 62 65 68 74 79 74 80 89 92 89
31 31 32 32 32 30 27 21 12 9 13 14 18 26 30 35 39 43 49 50 50 53 54 56 57 57 57 52 50 54 60 66 67 64 66 71 74 75 75 83 93 94 90
31 34 34 33 30 27 23 14 7 8 9 18 23 27 33 38 43 49 50 50 52 54 56 57 56 53 56 48 51 54 62 68 70 75 81 71 71 73 78 85 90 85 91
29 30 30 29 27 23 15 7 6 10 17 20 24 31 36 42 46 49 48 51 51 54 55 56 55 51 47 52 54 55 60 65 76 86 82 77 77 77 83 84 78 79 83
30 29 31 27 23 17 10 7 7 16 19 22 27 33 40 44 47 49 49 50 50 52 54 54 54 50 49 52 56 57 59 67 75 82 82 86 79 83 81 71 71 72 73
30 28 25 22 19 13 4 6 15 16 20 24 30 36 43 46 46 47 47 49 48 49 52 53 54 56 57 60 56 60 67 72 77 79 80 79 83 74 70 70 67 66 74
27 24 22 19 14 7 9 15 14 15 20 27 34 42 45 47 45 42 44 45 47 51 52 58 60 63 64 61 68 78 84 82 83 82 81 80 69 66 69 71 73 73 72
24 23 21 15 11 13 15 12 12 16 24 32 39 42 43 45 45 44 44 46 44 46 55 60 63 66 68 71 71 75 81 79 79 79 77 69 68 75 75 77 75 78 80
23 23 20 17 17 14 12 10 14 21 29 36 40 40 45 45 43 47 53 43 44 45 48 50 50 58 61 66 71 74 72 71 71 67 66 68 70 72 76 79 84 86 83
Wind_Direction_500mb
183 145 124 107 107 106 104 100 107 103 110 120 129 133 123 119 112 103 89 71 56 48 32 15 4 356 350 339 335 331 326 326 324 319 316 312 330 306 295 282 282 284 285
173 142 127 115 104 102 101 102 102 105 115 126 126 124 121 110 104 97 87 70 48 33 17 5 353 343 339 333 333 333 331 328 327 328 322 321 315 297 289 301 304 297 305
169 148 133 121 113 107 108 109 106 109 109 112 112 110 104 98 94 83 68 50 29 11 358 349 345 342 343 338 337 335 335 331 331 325 326 327 312 315 314 306 313 289 291
163 149 137 126 123 117 116 113 111 110 111 114 114 117 116 107 93 73 51 21 4 356 352 349 347 344 343 339 339 336 336 326 325 324 320 304 301 308 311 304 300 309 291
160 151 141 132 128 125 121 119 119 117 117 116 115 114 109 99 88 66 31 11 357 350 349 347 344 342 341 340 339 338 337 330 324 324 320 313 308 305 307 307 306 300 298
159 154 146 138 135 132 129 128 126 119 117 114 110 104 99 92 70 42 17 7 356 348 340 340 340 338 338 339 338 334 332 325 322 320 318 310 307 307 305 302 303 302 303
162 159 152 144 140 138 134 129 128 123 123 121 115 107 94 78 48 23 7 356 349 338 334 336 337 336 334 333 330 327 325 322 319 321 318 305 304 301 300 300 300 300 301
167 165 159 152 146 142 138 134 135 132 131 127 119 108 88 49 12 355 347 341 337 334 332 332 330 329 329 327 326 326 323 321 313 314 305 304 301 300 298 298 300 306 304
171 169 164 158 153 146 143 148 149 147 143 136 121 90 38 8 355 345 339 337 333 332 329 328 328 328 328 327 326 323 321 314 315 308 309 304 300 300 299 297 297 297 302
173 170 168 164 157 152 150 153 154 158 158 151 111 41 8 355 346 340 336 334 330 327 327 328 329 329 327 325 323 322 318 313 309 309 305 303 302 302 302 299 296 294 292
175 173 172 168 163 159 159 161 168 172 172 161 52 5 355 348 345 341 334 328 327 328 330 330 328 327 324 323 320 318 316 308 308 307 305 303 303 302 301 299 298 297 295
176 176 174 171 168 163 164 166 172 180 182 186 338 345 346 345 340 337 333 332 331 330 328 327 325 323 322 320 318 316 311 309 308 306 306 304 303 302 302 302 301 300 300
176 176 175 176 174 172 168 170 177 184 192 220 322 331 336 339 341 338 337 333 330 327 325 324 323 322 320 319 315 313 307 309 307 306 304 303 304 303 303 303 303 303 301
178 178 179 179 178 175 172 167 174 189 205 248 305 325 333 333 334 337 335 331 329 327 325 323 321 320 317 314 315 305 311 311 308 306 305 304 303 302 303 302 301 302 304
183 183 181 180 179 175 172 170 179 196 222 280 316 324 328 329 336 333 332 330 327 325 323 320 319 316 313 315 303 312 312 312 311 310 308 304 303 303 303 304 306 305 305
184 184 183 181 180 177 173 174 189 207 248 303 323 328 327 335 333 331 331 328 325 325 321 319 313 311 311 308 312 311 313 312 314 312 309 309 308 308 306 305 304 303 307
184 182 182 180 177 176 176 176 193 213 264 315 322 329 336 333 331 329 326 327 324 321 318 313 312 308 309 313 312 312 312 318 313 311 311 312 310 309 309 310 307 305 306
173 174 173 170 168 167 164 178 194 224 294 318 330 337 333 328 325 327 328 324 321 317 315 312 310 311 312 312 311 314 318 313 312 312 312 311 309 312 313 311 312 311 314
151 156 161 161 162 166 178 190 209 280 306 330 327 328 324 325 328 328 325 322 318 318 317 313 314 312 310 312 315 315 315 315 315 315 312 312 313 314 313 314 315 316 312
144 151 158 160 160 171 182 197 252 301 309 325 325 323 326 328 328 326 322 320 319 316 315 313 313 312 311 314 314 315 316 315 315 315 318 318 316 315 316 316 317 316 314
150 154 153 151 168 176 186 224 277 289 320 324 322 324 328 327 326 323 322 321 316 314 313 314 314 314 314 313 314 317 317 317 316 319 319 318 319 316 318 316 316 314 316
148 149 151 163 169 181 208 247 290 315 315 316 322 327 328 327 325 323 320 316 316 313 315 315 314 315 314 313 316 317 318 319 319 319 319 317 317 319 318 317 318 318 317
150 154 166 175 184 201 225 283 293 302 308 319 325 327 327 326 323 318 317 316 315 314 312 314 314 315 315 318 319 320 323 321 321 319 318 318 319 320 320 321 321 321 321
163 170 179 183 198 235 267 276 282 300 317 325 327 326 324 323 322 314 314 311 310 310 312 314 315 316 319 321 327 327 325 325 323 325 323 320 321 321 323 326 326 324 322
176 178 184 191 220 246 258 262 290 315 322 323 323 324 322 319 319 314 311 309 307 304 309 311 312 317 320 323 323 322 323 324 324 322 322 324 326 327 327 326 325 326 328
185 189 191 215 232 234 244 277 309 315 315 320 324 320 319 320 314 312 312 311 310 310 307 307 311 314 314 319 321 322 324 324 325 323 325 325 327 326 326 325 326 330 331
Wind_Speed_850mb
13 11 11 14 16 18 20 20 21 23 23 24 26 24 22 18 16 16 15 14 14 14 15 18 21 25 26 29 33 36 42 43 38 48 50 52 24 35 41 42 42 51 58
20 19 21 23 24 26 29 31 31 30 28 30 31 30 27 26 24 21 19 17 17 19 22 25 28 33 34 36 40 41 43 39 38 41 53 29 48 25 43 60 53 54 52
27 26 29 30 30 31 32 34 35 35 34 33 33 33 31 28 23 19 19 19 19 22 27 31 34 36 37 37 41 39 39 38 42 31 28 30 27 69 50 53 38 43 58
32 32 34 34 34 35 36 36 36 36 34 30 29 27 26 25 21 18 16 16 21 28 35 38 39 40 40 38 38 35 36 32 36 42 34 38 47 56 58 36 62 46 49
39 37 34 35 36 37 37 36 35 35 34 31 28 26 25 22 18 14 16 23 31 39 42 43 43 42 41 39 41 40 39 38 41 44 44 44 46 51 59 73 55 65 59
41 37 33 35 37 37 36 35 33 34 31 28 25 23 21 18 14 16 21 27 32 39 45 45 42 40 41 43 43 45 46 48 51 51 50 39 46 54 56 69 77 75 69
43 39 37 34 33 33 33 31 29 30 27 24 22 18 15 13 12 16 22 28 32 39 44 45 42 41 43 45 47 50 51 52 54 57 50 49 52 52 56 64 77 75 78
43 39 36 34 32 31 28 28 26 25 22 19 16 13 10 9 12 17 22 27 31 37 42 42 41 41 44 46 47 51 51 45 52 49 49 51 53 54 56 62 65 85 83
45 43 37 33 31 29 27 27 24 21 17 14 10 8 9 13 19 25 31 33 35 34 37 38 39 41 44 45 48 51 50 49 51 51 53 52 58 57 59 58 61 62 82
46 43 37 33 30 28 27 25 20 18 14 9 5 6 13 19 24 29 34 36 34 34 35 36 39 42 46 49 51 55 54 50 49 53 56 57 59 62 62 64 62 63 69
48 44 39 34 31 28 27 24 19 16 11 6 2 9 15 21 28 33 36 35 32 31 34 38 43 47 51 53 52 53 50 46 54 55 58 61 63 64 64 65 67 68 64
48 44 40 36 32 29 26 22 19 15 11 4 4 11 18 24 30 35 34 31 30 33 38 43 47 50 52 52 50 51 45 53 57 59 61 63 64 65 64 65 65 67 70
46 44 40 36 32 29 26 22 19 15 11 4 6 13 20 27 31 33 30 30 34 38 42 46 49 52 52 51 48 46 51 56 57 59 60 64 63 65 65 64 67 73 73
46 44 40 36 33 29 26 23 20 17 11 6 10 16 24 30 31 30 29 34 39 43 47 50 52 51 48 48 46 50 61 60 58 59 59 61 62 63 66 73 70 68 76
45 44 40 37 34 30 27 24 21 17 11 9 14 21 28 30 29 28 32 38 42 47 50 53 50 49 48 45 52 61 62 61 63 59 59 60 61 62 62 64 69 79 82
41 39 37 36 34 31 28 26 22 16 9 10 17 25 28 27 28 32 37 43 48 50 50 50 48 50 51 50 53 55 61 60 59 62 65 63 63 63 64 67 73 72 80
38 38 36 34 32 30 28 24 20 12 8 12 19 24 26 27 32 38 43 46 48 52 51 48 49 54 57 51 54 54 57 56 59 63 66 69 67 66 80 76 76 78 81
32 33 33 33 30 30 26 24 18 10 9 15 19 23 27 31 36 41 43 47 49 48 50 52 54 56 56 53 54 53 57 59 60 62 65 68 74 79 74 80 89 92 89
31 31 32 32 32 30 27 21 12 9 13 14 18 26 30 35 39 43 49 50 50 53 54 56 57 57 57 52 50 54 60 66 67 64 66 71 74 75 75 83 93 94 90
31 34 34 33 30 27 23 14 7 8 9 18 23 27 33 38 43 49 50 50 52 54 56 57 56 53 56 48 51 54 62 68 70 75 81 71 71 73 78 85 90 85 91
29 30 30 29 27 23 15 7 6 10 17 20 24 31 36 42 46 49 48 51 51 54 55 56 55 51 47 52 54 55 60 65 76 86 82 77 77 77 83 84 78 79 83
30 29 31 27 23 17 10 7 7 16 19 22 27 33 40 44 47 49 49 50 50 52 54 54 54 50 49 52 56 57 59 67 75 82 82 86 79 83 81 71 71 72 73
30 28 25 22 19 13 4 6 15 16 20 24 30 36 43 46 46 47 47 49 48 49 52 53 54 56 57 60 56 60 67 72 77 79 80 79 83 74 70 70 67 66 74
27 24 22 19 14 7 9 15 14 15 20 27 34 42 45 47 45 42 44 45 47 51 52 58 60 63 64 61 68 78 84 82 83 82 81 80 69 66 69 71 73 73 72
24 23 21 15 11 13 15 12 12 16 24 32 39 42 43 45 45 44 44 46 44 46 55 60 63 66 68 71 71 75 81 79 79 79 77 69 68 75 75 77 75 78 80
23 23 20 17 17 14 12 10 14 21 29 36 40 40 45 45 43 47 53 43 44 45 48 50 50 58 61 66 71 74 72 71 71 67 66 68 70 72 76 79 84 86 83
Wind_Direction_850mb
183 145 124 107 107 106 104 100 107 103 110 120 129 133 123 119 112 103 89 71 56 48 32 15 4 356 350 339 335 331 326 326 324 319 316 312 330 306 295 282 282 284 285
173 142 127 115 104 102 101 102 102 105 115 126 126 124 121 110 104 97 87 70 48 33 17 5 353 343 339 333 333 333 331 328 327 328 322 321 315 297 289 301 304 297 305
169 148 133 121 113 107 108 109 106 109 109 112 112 110 104 98 94 83 68 50 29 11 358 349 345 342 343 338 337 335 335 331 331 325 326 327 312 315 314 306 313 289 291
163 149 137 126 123 117 116 113 111 110 111 114 114 117 116 107 93 73 51 21 4 356 352 349 347 344 343 339 339 336 336 326 325 324 320 304 301 308 311 304 300 309 291
160 151 141 132 128 125 121 119 119 117 117 116 115 114 109 99 88 66 31 11 357 350 349 347 344 342 341 340 339 338 337 330 324 324 320 313 308 305 307 307 306 300 298
159 154 146 138 135 132 129 128 126 119 117 114 110 104 99 92 70 42 17 7 356 348 340 340 340 338 338 339 338 334 332 325 322 320 318 310 307 307 305 302 303 302 303
162 159 152 144 140 138 134 129 128 123 123 121 115 107 94 78 48 23 7 356 349 338 334 336 337 336 334 333 330 327 325 322 319 321 318 305 304 301 300 300 300 300 301
167 165 159 152 146 142 138 134 135 132 131 127 119 108 88 49 12 355 347 341 337 334 332 332 330 329 329 327 326 326 323 321 313 314 305 304 301 300 298 298 300 306 304
171 169 164 158 153 146 143 148 149 147 143 136 121 90 38 8 355 345 339 337 333 332 329 328 328 328 328 327 326 323 321 314 315 308 309 304 300 300 299 297 297 297 302
173 170 168 164 157 152 150 153 154 158 158 151 111 41 8 355 346 340 336 334 330 327 327 328 329 329 327 325 323 322 318 313 309 309 305 303 302 302 302 299 296 294 292
175 173 172 168 163 159 159 161 168 172 172 161 52 5 355 348 345 341 334 328 327 328 330 330 328 327 324 323 320 318 316 308 308 307 305 303 303 302 301 299 298 297 295
176 176 174 171 168 163 164 166 172 180 182 186 338 345 346 345 340 337 333 332 331 330 328 327 325 323 322 320 318 316 311 309 308 306 306 304 303 302 302 302 301 300 300
176 176 175 176 174 172 168 170 177 184 192 220 322 331 336 339 341 338 337 333 330 327 325 324 323 322 320 319 315 313 307 309 307 306 304 303 304 303 303 303 303 303 301
178 178 179 179 178 175 172 167 174 189 205 248 305 325 333 333 334 337 335 331 329 327 325 323 321 320 317 314 315 305 311 311 308 306 305 304 303 302 303 302 301 302 304
183 183 181 180 179 175 172 170 179 196 222 280 316 324 328 329 336 333 332 330 327 325 323 320 319 316 313 315 303 312 312 312 311 310 308 304 303 303 303 304 306 305 305
184 184 183 181 180 177 173 174 189 207 248 303 323 328 327 335 333 331 331 328 325 325 321 319 313 311 311 308 312 311 313 312 314 312 309 309 308 308 306 305 304 303 307
184 182 182 180 177 176 176 176 193 213 264 315 322 329 336 333 331 329 326 327 324 321 318 313 312 308 309 313 312 312 312 318 313 311 311 312 310 309 309 310 307 305 306
173 174 173 170 168 167 164 178 194 224 294 318 330 337 333 328 325 327 328 324 321 317 315 312 310 311 312 312 311 314 318 313 312 312 312 311 309 312 313 311 312 311 314
151 156 161 161 162 166 178 190 209 280 306 330 327 328 324 325 328 328 325 322 318 318 317 313 314 312 310 312 315 315 315 315 315 315 312 312 313 314 313 314 315 316 312
144 151 158 160 160 171 182 197 252 301 309 325 325 323 326 328 328 326 322 320 319 316 315 313 313 312 311 314 314 315 316 315 315 315 318 318 316 315 316 316 317 316 314
150 154 153 151 168 176 186 224 277 289 320 324 322 324 328 327 326 323 322 321 316 314 313 314 314 314 314 313 314 317 317 317 316 319 319 318 319 316 318 316 316 314 316
148 149 151 163 169 181 208 247 290 315 315 316 322 327 328 327 325 323 320 316 316 313 315 315 314 315 314 313 316 317 318 319 319 319 319 317 317 319 318 317 318 318 317
150 154 166 175 184 201 225 283 293 302 308 319 325 327 327 326 323 318 317 316 315 314 312 314 314 315 315 318 319 320 323 321 321 319 318 318 319 320 320 321 321 321 321
163 170 179 183 198 235 267 276 282 300 317 325 327 326 324 323 322 314 314 311 310 310 312 314 315 316 319 321 327 327 325 325 323 325 323 320 321 321 323 326 326 324 322
176 178 184 191 220 246 258 262 290 315 322 323 323 324 322 319 319 314 311 309 307 304 309 311 312 317 320 323 323 322 323 324 324 322 322 324 326 327 327 326 325 326 328
185 189 191 215 232 234 244 277 309 315 315 320 324 320 319 320 314 312 312 311 310 310 307 307 311 314 314 319 321 322 324 324 325 323 325 325 327 326 326 325 326 330 331